AQI (77)

Current Conditions for Foresthill, CA. Sunny, Dry   
Visibility: 10 miles
Foresthill Advisory text:

  Summary / Temperature 

Current Temperature
84.5°F
29.2°C
(24/hr Ago)
90.7°F
(Apparent temp)
82.6°F
Warm
Heat Index
82.1°F 

85.4°F/ 29.7°C
Noticeable discomfort

 Temp Rate:

 24/hr Difference:

 Avg Running Temp:

 Todays High:

 Todays Low:

 Y-days High:

 Y-days Low:

 Todays HeatIdx:

 Y-days HeatIdx:

 Evapotranspiration:

+1.1°F/hr 

-6.2°F

84.5°F

86.1°F 1:39pm

70.4°F 6:13am

93.1°F 1:58pm

72.0°F 7:30am

83.5°F 1:39pm

91.2°F 1:59pm

0.149 in

115' Above Ground

 Temperature:

 6'AGL VRS 115'AGL:

 Avg Running Temp:

 Humidity:

 Todays High:

 Todays Low:

 Y-days High:

 Y-days Low:

78.0°F 

-6.5°F

78.0°F

0% 

78.0°F 12:00am

78.0°F 12:00am

78.0°F 12:00am

78.0°F 12:00am

Temp & Humidity Graphs

  Wind 

Wind Speed

 5.0 mph

Gusting to

 11.0 mph

Wind from W

264°  W

Light breeze

 Avg speed:

 Wind Run:

 Peak Gust:

  2.0 mph 

44.0 miles

  14.0 mph 7:37am

  Almanac  

Moon age: 0 days,23 hours,44 minutes,1%

Waxing Crescent
3%
Illuminated
1 day in cycle

 Moonrise:

 Moonset:

 Sunrise:

 Sunset:

 Solar Noon:

7:25am

9:27pm

5:58am

8:22pm

1:10pm

1min 36s less daylight tomorrow 

  Solar Radiation 

(Current Solar)
  763 W/m2 (82%)
(Todays High)
 967 W/m2@12:19pm
Feels like: 97.7°F in the sun

Rain

 Rain Today:

 Rain Rate (/hr):

 Rain last hour:

 Rain Yesterday:

 This Month:

 Season Total:

41 Days Since Last Rain Day

0.00 in

0.000 in

0.00 in

0.00 in

0.00 in

0.00 in

Updated Time

Updated: 7/24/17  3:30pm

(Updated  sec ago)

Humidity & Barometer

 Humidity:

 Wetbulb:

 Dew Point:

 Barometer:

27% 

64.7°F 

46.8°F 

29.781 inHg 

 Baro Trend:  Steady 
Northern Calif
Preparedness
Fire 
Level 

    UV Index  

(Current UV)
6.1  High
(Todays High) @ 12:18pm
9.0   Very High

National Weather Service Forecast

This
Afternoon
This Afternoon: Sunny
Sunny
Tonight

Tonight: Mostly Clear
Mostly Clear
Tuesday

Tuesday: Mostly Sunny
Mostly Sunny
Tuesday
Night
Tuesday Night: Mostly Clear
Mostly Clear
Wednesday

Wednesday: Sunny
Sunny
Wednesday
Night
Wednesday Night: Mostly Clear
Mostly Clear
Hi 91 °F Lo 66 °F Hi 89 °F Lo 64 °F Hi 91 °F Lo 68 °F

Foresthill Probe 2 Stats  
Foresthill Probe 2: is located on Thomas Street
at 3000 feet. The main Foresthill Weather site
is located on Melody ln at the 2860 foot elevation

Calm
88.0°F
31.1°C
Temp Rate:
+0.6°F
1.0 mph
Gusting to
3.0 mph
(Humidity)
24%
Wind from SW
215°  SW
Updated: 24/07/17 - 15:26:52
 Todays High: 88.9°F 13:50
 Todays Low: 68.8°F 06:35
 Rain Today: 0.00 in
 Season Total: 0.00 in

Foresthill Wx: Monthly,Yearly, Highs and Lows 

Foresthill  
This Weather Data is coming from the main Foresthill
Weather site located on Melody ln at the 2860 foot
elevation
Not Foresthill Probe 2
Weather Data
Month
  High
Month
  Low
Year
High
Year
Low
Temp 95.4°F
7/9/17
63.9°F
7/21/17
95.4°F
7/9/17
27.6°F
2/24/17
Humidity 73%
7/1/17
16%
7/18/17
100%
1/1/17
14%
6/5/17
Heat Index 93.1°F
7/7/17
63.9°F
7/21/17
97.6°F
6/19/17
32.5°F
2/24/17
Wind Chill 95.4°F
7/9/17
63.0°F
7/20/17
95.4°F
7/9/17
14.0°F
2/24/17
Wind Gust 22 mph
7/17/17
0 mph
7/1/17
48 mph
1/10/17
0 mph
1/1/17
Barometer 30.04 in
7/6/17
29.74 in
7/23/17
30.69 in
1/27/17
29.29 in
2/17/17
ET 0.28 in
7/17/17
0.00 in
7/1/17
0.28 in
7/17/17
0.00 in
1/1/17
Dew Point 63.0°F
7/8/17
33.4°F
7/18/17
69.7°F
6/19/17
20.6°F
4/28/17
Pacific Satellite US Radar Satellite Imagery Sacramento,CA.  (click to enlarge)
NWS Weather Forecast - Summary
Updated: Mon Jul 24, 2017 - 2:36pm (PDT)
Current Interstate Highway Conditions for I-80 & US-50

[I 80: IN THE SAN FRANCISCO BAY AREA - SOLANO CO]
no traffic restrictions are reported for this area.

[I 80: IN THE NORTHERN CALIFORNIA AREA & SIERRA NEVADA]
no traffic restrictions are reported for this area.

[US 50: IN THE SACRAMENTO VALLEY & THE LAKE TAHOE BASIN]
westbound traffic is reduced to 3 lanes from the jct of i 5 /in sacramento/ (sacramento co) jefferson blvd /in west sacramento/ (yolo co) from 7:00pm each night to 6:00am each morning monday thru friday thru 9/4/17 - due to construction
is reduced to 1 lane in each direction from 3 mi east of pollock pines to 1 mi west of riverton /at bridal veil falls rd/ (EL DORADO CO) - due to a slipout - motorists are subject to delays
NWS Weather Forecast: This Afternoon and Tonight (Updated: Mon, 24-Jul-2017 2:11pm PDT)
This
Afternoon
This Afternoon: Sunny
Sunny

Hi 91 °F
NWS forecast: Sunny, with a high near 91. West southwest wind around 7 mph.
Tonight

Tonight: Mostly Clear
Mostly Clear

Lo 66 °F
NWS forecast: Mostly clear, with a low around 66. West southwest wind 1 to 7 mph.
YR.NO 10 Day Weather forecast
Last update: 07/24/2017 @ 12:32
Next update: 07/25/2017 @ 01:00
Provided by: 22
      Temperature Precipitation Pressure Wind  
Today
07/24/2017
14:00 18:00 86°F   29.81 inHg Light breeze from southwest 6 mph
  18:00 00:00 82°F   29.79 inHg Light breeze from southwest 6 mph
    (Click to enlarge)
meteogram

    Forecast for next 9 days

      Temperature Precip Pressure Wind  
Tuesday
07/25/2017
00:00 06:00 64°F   29.86 inHg Light air from east-northeast 2 mph
  06:00 12:00 59°F   29.92 inHg Light air from east-northeast 2 mph
  12:00 18:00 82°F   29.93 inHg Light breeze from southwest 6 mph
  18:00 00:00 82°F   29.88 inHg Light breeze from southwest 6 mph
      Temperature Precip Pressure Wind  
Wednesday
07/26/2017
00:00 06:00 66°F   29.97 inHg Light air from northeast 1 mph
  06:00 12:00 61°F   29.97 inHg Light breeze from east-northeast 5 mph
  12:00 18:00 86°F   29.98 inHg Light breeze from west-southwest 7 mph
  18:00 00:00 86°F   29.92 inHg Light breeze from west-southwest 5 mph
      Temperature Precip Pressure Wind  
Thursday
07/27/2017
00:00 06:00 64°F   29.96 inHg Light air from northeast 2 mph
  05:00 11:00 59°F   29.93 inHg Light breeze from east-northeast 6 mph
  11:00 17:00 90°F   29.93 inHg Light breeze from west-southwest 6 mph
  17:00 23:00 90°F   29.86 inHg Light breeze from west-southwest 7 mph
  23:00 05:00 70°F   29.89 inHg Light air from east-northeast 3 mph
      Temperature Precip Pressure Wind  
Friday
07/28/2017
05:00 11:00 61°F   29.88 inHg Light breeze from east-northeast 6 mph
  11:00 17:00 90°F   29.88 inHg Light breeze from southwest 6 mph
  17:00 23:00 91°F   29.83 inHg Light breeze from southwest 7 mph
  23:00 05:00 68°F   29.88 inHg Light breeze from east-northeast 4 mph
      Temperature Precip Pressure Wind  
Saturday
07/29/2017
05:00 11:00 59°F   29.88 inHg Light breeze from east-northeast 6 mph
  11:00 17:00 91°F   29.92 inHg Light breeze from southwest 7 mph
  17:00 23:00 91°F   29.90 inHg Light breeze from southwest 6 mph
  23:00 05:00 64°F   29.93 inHg Light air from east-northeast 3 mph
      Temperature Precip Pressure Wind  
Sunday
07/30/2017
05:00 11:00 59°F   29.92 inHg Light breeze from east-northeast 6 mph
  11:00 17:00 93°F   29.95 inHg Light breeze from west-southwest 5 mph
  17:00 23:00 97°F   29.88 inHg Light breeze from west 6 mph
  23:00 05:00 73°F   29.92 inHg Light air from east-northeast 2 mph
      Temperature Precip Pressure Wind  
Monday
07/31/2017
05:00 11:00 61°F   29.92 inHg Light breeze from east-northeast 6 mph
  11:00 17:00 97°F   29.89 inHg Light breeze from west 5 mph
  17:00 23:00 99°F   29.83 inHg Light breeze from west-southwest 6 mph
  23:00 05:00 75°F   29.88 inHg Light air from east-northeast 3 mph
      Temperature Precip Pressure Wind  
Tuesday
08/01/2017
05:00 11:00 64°F   29.88 inHg Light breeze from east-northeast 6 mph
  11:00 17:00 99°F   29.88 inHg Light breeze from west-southwest 5 mph
  17:00 23:00 100°F   29.80 inHg Light breeze from west 7 mph
  23:00 05:00 73°F   29.84 inHg Light air from east-northeast 3 mph
      Temperature Precip Pressure Wind  
Wednesday
08/02/2017
05:00 11:00 68°F   29.85 inHg Light breeze from east-northeast 6 mph
  11:00 17:00 102°F   29.85 inHg Light breeze from west-southwest 6 mph
  17:00 23:00 102°F   29.79 inHg Light breeze from west-southwest 7 mph
  23:00 05:00 81°F   29.86 inHg Light air from east 2 mph
How Close Are We To this Month's Temperature Record ?
Updated Monday, Jul 24, 2017- 3:25:01 PM

Current Temperature: 84.5°F

July's High: Temperature Record 98.1°F - Set on Wed, Jul 29, 2015 - 2:57:00 PM
We are currently 13.6°F Less than this Month's record High

July's Low: Temperature Record 51.4°F - Set on Sun, Jul 10, 2016 - 7:04:17 AM
We are currently 33.1°F More than this Month's record Low

Weather History For Monday, July 24, 2017


On this Day - In Weather History ...
Data courtesy of weatherforyou.com
powered by Cumulus v1.9.3 (1059)
Ambient Weather VWS v14.00
Top Contact Website Map Copyright © 2007 - 2017 Foresthillweather.com Never base important decisions on this or any weather information obtained from the Internet